Tracking 18785 objects as of 20-August-2017
HD Live streaming from Space Station
objects crossing your sky now

ARIANE 5 R/B

Track ARIANE 5 R/B now!


NORAD ID: 29275
Int'l Code: 2006-033D
Perigee: 297.2 km
Apogee: 33,239.2 km
Inclination: 5.9 °
Period: 583.8 minutes
Semi major axis: 23139 km
RCS: 37.7588 m2 (large)
Launch date: August 11, 2006
Source: France (FR)
Launch site: FRENCH GUIANA (FRGUI)

Note: This is a ROCKET BODY
Your satellite tracking list
Your tracking list is empty





NASA's NSSDC Master Catalog

Two Line Element Set (TLE):
1 29275U 06033D   17231.82909519 +.00000564 +00000-0 +42246-3 0  9990
2 29275 005.9167 176.7779 7118217 025.5144 356.7136 02.46649163095441
Source of the keplerian elements: AFSPC